TimeEDT,TemperatureF,Dew PointF,Humidity,Sea Level PressureIn,VisibilityMPH,Wind Direction,Wind SpeedMPH,Gust SpeedMPH,PrecipitationIn,Events,Conditions,WindDirDegrees,DateUTC
12:53 AM,51.1,48.9,92,30.25,10.0,Calm,Calm,-,N/A,,Clear,0,2011-10-06 04:53:00
1:53 AM,50.0,48.9,96,30.26,9.0,Calm,Calm,-,N/A,,Clear,0,2011-10-06 05:53:00
2:53 AM,48.9,48.0,97,30.27,9.0,Calm,Calm,-,N/A,,Clear,0,2011-10-06 06:53:00
3:53 AM,48.0,46.9,96,30.27,10.0,Calm,Calm,-,N/A,,Clear,0,2011-10-06 07:53:00
4:53 AM,46.9,46.9,100,30.28,10.0,Calm,Calm,-,N/A,,Clear,0,2011-10-06 08:53:00
5:53 AM,46.9,46.0,97,30.29,9.0,Calm,Calm,-,N/A,,Clear,0,2011-10-06 09:53:00
6:53 AM,46.9,46.0,97,30.31,9.0,Calm,Calm,-,N/A,,Clear,0,2011-10-06 10:53:00
7:53 AM,51.8,48.2,88,30.35,10.0,NE,4.6,-,N/A,,Clear,40,2011-10-06 11:53:00
8:53 AM,57.0,51.1,81,30.35,10.0,NE,10.4,-,0.01,,Clear,50,2011-10-06 12:53:00
9:53 AM,61.0,48.9,64,30.36,10.0,ENE,8.1,-,N/A,,Clear,60,2011-10-06 13:53:00
10:53 AM,62.6,48.2,59,30.39,10.0,NE,6.9,-,N/A,,Clear,50,2011-10-06 14:53:00
11:53 AM,66.9,50.0,54,30.37,10.0,NE,5.8,-,N/A,,Clear,40,2011-10-06 15:53:00
12:53 PM,70.0,48.9,47,30.35,10.0,Variable,5.8,-,N/A,,Clear,0,2011-10-06 16:53:00
1:53 PM,70.0,48.0,46,30.33,10.0,ENE,4.6,-,N/A,,Clear,60,2011-10-06 17:53:00
2:53 PM,72.0,51.1,48,30.32,10.0,NNE,8.1,-,N/A,,Clear,30,2011-10-06 18:53:00
3:53 PM,73.0,51.1,46,30.32,10.0,North,5.8,-,N/A,,Clear,360,2011-10-06 19:53:00
4:53 PM,71.1,50.0,47,30.31,10.0,Variable,3.5,-,N/A,,Clear,0,2011-10-06 20:53:00
5:53 PM,70.0,51.1,51,30.31,10.0,ENE,5.8,-,N/A,,Clear,60,2011-10-06 21:53:00
6:53 PM,61.0,54.0,78,30.32,10.0,Calm,Calm,-,N/A,,Clear,0,2011-10-06 22:53:00
7:53 PM,55.0,52.0,89,30.33,10.0,Calm,Calm,-,N/A,,Clear,0,2011-10-06 23:53:00
8:53 PM,55.0,52.0,89,30.34,10.0,Calm,Calm,-,N/A,,Clear,0,2011-10-07 00:53:00
9:53 PM,54.0,51.1,90,30.34,10.0,Calm,Calm,-,N/A,,Clear,0,2011-10-07 01:53:00
10:53 PM,51.1,48.9,92,30.35,10.0,Calm,Calm,-,N/A,,Clear,0,2011-10-07 02:53:00
11:53 PM,50.0,48.9,96,30.36,10.0,Calm,Calm,-,N/A,,Clear,0,2011-10-07 03:53:00